Year,Month,Day,Hour,Minute,Value (Times are PST for insolation in W/m^2)
2010,09,08,00,00,0.00
2010,09,08,00,01,0.00
2010,09,08,00,02,0.00
2010,09,08,00,03,0.00
2010,09,08,00,04,0.00
2010,09,08,00,05,0.00
2010,09,08,00,06,0.00
2010,09,08,00,07,0.00
2010,09,08,00,08,0.00
2010,09,08,00,09,0.00
2010,09,08,00,10,0.00
2010,09,08,00,11,0.00
2010,09,08,00,12,0.00
2010,09,08,00,13,0.00
2010,09,08,00,14,0.00
2010,09,08,00,15,0.00
2010,09,08,00,16,0.00
2010,09,08,00,17,0.00
2010,09,08,00,18,0.00
2010,09,08,00,19,0.00
2010,09,08,00,20,0.00
2010,09,08,00,21,0.00
2010,09,08,00,22,0.00
2010,09,08,00,23,0.00
2010,09,08,00,24,0.00
2010,09,08,00,25,0.00
2010,09,08,00,26,0.00
2010,09,08,00,27,0.00
2010,09,08,00,28,0.00
2010,09,08,00,29,0.00
2010,09,08,00,30,0.00
2010,09,08,00,31,0.00
2010,09,08,00,32,0.00
2010,09,08,00,33,0.00
2010,09,08,00,34,0.00
2010,09,08,00,35,0.00
2010,09,08,00,36,0.00
2010,09,08,00,37,0.00
2010,09,08,00,38,0.00
2010,09,08,00,39,0.00
2010,09,08,00,40,0.00
2010,09,08,00,41,0.00
2010,09,08,00,42,0.00
2010,09,08,00,43,0.00
2010,09,08,00,44,0.00
2010,09,08,00,45,0.00
2010,09,08,00,46,0.00
2010,09,08,00,47,0.00
2010,09,08,00,48,0.00
2010,09,08,00,49,0.00
2010,09,08,00,50,0.00
2010,09,08,00,51,0.00
2010,09,08,00,52,0.00
2010,09,08,00,53,0.00
2010,09,08,00,54,0.00
2010,09,08,00,55,0.00
2010,09,08,00,56,0.00
2010,09,08,00,57,0.00
2010,09,08,00,58,0.00
2010,09,08,00,59,0.00
2010,09,08,01,00,0.00
2010,09,08,01,01,0.00
2010,09,08,01,02,0.00
2010,09,08,01,03,0.00
2010,09,08,01,04,0.00
2010,09,08,01,05,0.00
2010,09,08,01,06,0.00
2010,09,08,01,07,0.00
2010,09,08,01,08,0.00
2010,09,08,01,09,0.00
2010,09,08,01,10,0.00
2010,09,08,01,11,0.00
2010,09,08,01,12,0.00
2010,09,08,01,13,0.00
2010,09,08,01,14,0.00
2010,09,08,01,15,0.00
2010,09,08,01,16,0.00
2010,09,08,01,17,0.00
2010,09,08,01,18,0.00
2010,09,08,01,19,0.00
2010,09,08,01,20,0.00
2010,09,08,01,21,0.00
2010,09,08,01,22,0.00
2010,09,08,01,23,0.00
2010,09,08,01,24,0.00
2010,09,08,01,25,0.00
2010,09,08,01,26,0.00
2010,09,08,01,27,0.00
2010,09,08,01,28,0.00
2010,09,08,01,29,0.00
2010,09,08,01,30,0.00
2010,09,08,01,31,0.00
2010,09,08,01,32,0.00
2010,09,08,01,33,0.00
2010,09,08,01,34,0.00
2010,09,08,01,35,0.00
2010,09,08,01,36,0.00
2010,09,08,01,37,0.00
2010,09,08,01,38,0.00
2010,09,08,01,39,0.00
2010,09,08,01,40,0.00
2010,09,08,01,41,0.00
2010,09,08,01,42,0.00
2010,09,08,01,43,0.00
2010,09,08,01,44,0.00
2010,09,08,01,45,0.00
2010,09,08,01,46,0.00
2010,09,08,01,47,0.00
2010,09,08,01,48,0.00
2010,09,08,01,49,0.00
2010,09,08,01,50,0.00
2010,09,08,01,51,0.00
2010,09,08,01,52,0.00
2010,09,08,01,53,0.00
2010,09,08,01,54,0.00
2010,09,08,01,55,0.00
2010,09,08,01,56,0.00
2010,09,08,01,57,0.00
2010,09,08,01,58,0.00
2010,09,08,01,59,0.00
2010,09,08,02,00,0.00
2010,09,08,02,01,0.00
2010,09,08,02,02,0.00
2010,09,08,02,03,0.00
2010,09,08,02,04,0.00
2010,09,08,02,05,0.00
2010,09,08,02,06,0.00
2010,09,08,02,07,0.00
2010,09,08,02,08,0.00
2010,09,08,02,09,0.00
2010,09,08,02,10,0.00
2010,09,08,02,11,0.00
2010,09,08,02,12,0.00
2010,09,08,02,13,0.00
2010,09,08,02,14,0.00
2010,09,08,02,15,0.00
2010,09,08,02,16,0.00
2010,09,08,02,17,0.00
2010,09,08,02,18,0.00
2010,09,08,02,19,0.00
2010,09,08,02,20,0.00
2010,09,08,02,21,0.00
2010,09,08,02,22,0.00
2010,09,08,02,23,0.00
2010,09,08,02,24,0.00
2010,09,08,02,25,0.00
2010,09,08,02,26,0.00
2010,09,08,02,27,0.00
2010,09,08,02,28,0.00
2010,09,08,02,29,0.00
2010,09,08,02,30,0.00
2010,09,08,02,31,0.00
2010,09,08,02,32,0.00
2010,09,08,02,33,0.00
2010,09,08,02,34,0.00
2010,09,08,02,35,0.00
2010,09,08,02,36,0.00
2010,09,08,02,37,0.00
2010,09,08,02,38,0.00
2010,09,08,02,39,0.00
2010,09,08,02,40,0.00
2010,09,08,02,41,0.00
2010,09,08,02,42,0.00
2010,09,08,02,43,0.00
2010,09,08,02,44,0.00
2010,09,08,02,45,0.00
2010,09,08,02,46,0.00
2010,09,08,02,47,0.00
2010,09,08,02,48,0.00
2010,09,08,02,49,0.00
2010,09,08,02,50,0.00
2010,09,08,02,51,0.00
2010,09,08,02,52,0.00
2010,09,08,02,53,0.00
2010,09,08,02,54,0.00
2010,09,08,02,55,0.00
2010,09,08,02,56,0.00
2010,09,08,02,57,0.00
2010,09,08,02,58,0.00
2010,09,08,02,59,0.00
2010,09,08,03,00,0.00
2010,09,08,03,01,0.00
2010,09,08,03,02,0.00
2010,09,08,03,03,0.00
2010,09,08,03,04,0.00
2010,09,08,03,05,0.00
2010,09,08,03,06,0.00
2010,09,08,03,07,0.00
2010,09,08,03,08,0.00
2010,09,08,03,09,0.00
2010,09,08,03,10,0.00
2010,09,08,03,11,0.00
2010,09,08,03,12,0.00
2010,09,08,03,13,0.00
2010,09,08,03,14,0.00
2010,09,08,03,15,0.00
2010,09,08,03,16,0.00
2010,09,08,03,17,0.00
2010,09,08,03,18,0.00
2010,09,08,03,19,0.00
2010,09,08,03,20,0.00
2010,09,08,03,21,0.00
2010,09,08,03,22,0.00
2010,09,08,03,23,0.00
2010,09,08,03,24,0.00
2010,09,08,03,25,0.00
2010,09,08,03,26,0.00
2010,09,08,03,27,0.00
2010,09,08,03,28,0.00
2010,09,08,03,29,0.00
2010,09,08,03,30,0.00
2010,09,08,03,31,0.00
2010,09,08,03,32,0.00
2010,09,08,03,33,0.00
2010,09,08,03,34,0.00
2010,09,08,03,35,0.00
2010,09,08,03,36,0.00
2010,09,08,03,37,0.00
2010,09,08,03,38,0.00
2010,09,08,03,39,0.00
2010,09,08,03,40,0.00
2010,09,08,03,41,0.00
2010,09,08,03,42,0.00
2010,09,08,03,43,0.00
2010,09,08,03,44,0.00
2010,09,08,03,45,0.00
2010,09,08,03,46,0.00
2010,09,08,03,47,0.00
2010,09,08,03,48,0.00
2010,09,08,03,49,0.00
2010,09,08,03,50,0.00
2010,09,08,03,51,0.00
2010,09,08,03,52,0.00
2010,09,08,03,53,0.00
2010,09,08,03,54,0.00
2010,09,08,03,55,0.00
2010,09,08,03,56,0.00
2010,09,08,03,57,0.00
2010,09,08,03,58,0.00
2010,09,08,03,59,0.00
2010,09,08,04,00,0.00
2010,09,08,04,01,0.00
2010,09,08,04,02,0.00
2010,09,08,04,03,0.00
2010,09,08,04,04,0.00
2010,09,08,04,05,0.00
2010,09,08,04,06,0.00
2010,09,08,04,07,0.00
2010,09,08,04,08,0.00
2010,09,08,04,09,0.00
2010,09,08,04,10,0.00
2010,09,08,04,11,0.00
2010,09,08,04,12,0.00
2010,09,08,04,13,0.00
2010,09,08,04,14,0.00
2010,09,08,04,15,0.00
2010,09,08,04,16,0.00
2010,09,08,04,17,0.00
2010,09,08,04,18,0.00
2010,09,08,04,19,0.00
2010,09,08,04,20,0.00
2010,09,08,04,21,0.00
2010,09,08,04,22,0.00
2010,09,08,04,23,0.00
2010,09,08,04,24,0.00
2010,09,08,04,25,0.00
2010,09,08,04,26,0.00
2010,09,08,04,27,0.00
2010,09,08,04,28,0.00
2010,09,08,04,29,0.00
2010,09,08,04,30,0.00
2010,09,08,04,31,0.00
2010,09,08,04,32,0.00
2010,09,08,04,33,0.00
2010,09,08,04,34,0.00
2010,09,08,04,35,0.00
2010,09,08,04,36,0.00
2010,09,08,04,37,0.00
2010,09,08,04,38,0.00
2010,09,08,04,39,0.00
2010,09,08,04,40,0.00
2010,09,08,04,41,0.00
2010,09,08,04,42,0.00
2010,09,08,04,43,0.00
2010,09,08,04,44,0.00
2010,09,08,04,45,0.00
2010,09,08,04,46,0.00
2010,09,08,04,47,0.00
2010,09,08,04,48,0.00
2010,09,08,04,49,0.00
2010,09,08,04,50,0.00
2010,09,08,04,51,0.00
2010,09,08,04,52,0.00
2010,09,08,04,53,0.00
2010,09,08,04,54,0.00
2010,09,08,04,55,0.00
2010,09,08,04,56,0.00
2010,09,08,04,57,0.00
2010,09,08,04,58,0.00
2010,09,08,04,59,0.00
2010,09,08,05,00,0.00
2010,09,08,05,01,0.00
2010,09,08,05,02,0.00
2010,09,08,05,03,0.00
2010,09,08,05,04,0.00
2010,09,08,05,05,0.00
2010,09,08,05,06,0.00
2010,09,08,05,07,0.00
2010,09,08,05,08,0.00
2010,09,08,05,09,0.00
2010,09,08,05,10,0.00
2010,09,08,05,11,0.00
2010,09,08,05,12,0.00
2010,09,08,05,13,0.00
2010,09,08,05,14,0.00
2010,09,08,05,15,0.00
2010,09,08,05,16,0.00
2010,09,08,05,17,0.00
2010,09,08,05,18,0.00
2010,09,08,05,19,0.00
2010,09,08,05,20,0.00
2010,09,08,05,21,0.00
2010,09,08,05,22,0.00
2010,09,08,05,23,0.00
2010,09,08,05,24,0.00
2010,09,08,05,25,0.00
2010,09,08,05,26,0.00
2010,09,08,05,27,0.00
2010,09,08,05,28,0.00
2010,09,08,05,29,0.00
2010,09,08,05,30,0.00
2010,09,08,05,31,0.00
2010,09,08,05,32,0.00
2010,09,08,05,33,0.00
2010,09,08,05,34,0.00
2010,09,08,05,35,0.00
2010,09,08,05,36,0.00
2010,09,08,05,37,0.00
2010,09,08,05,38,0.00
2010,09,08,05,39,0.00
2010,09,08,05,40,0.00
2010,09,08,05,41,0.00
2010,09,08,05,42,0.00
2010,09,08,05,43,0.00
2010,09,08,05,44,0.00
2010,09,08,05,45,0.00
2010,09,08,05,46,0.00
2010,09,08,05,47,0.00
2010,09,08,05,48,0.00
2010,09,08,05,49,0.00
2010,09,08,05,50,0.00
2010,09,08,05,51,0.00
2010,09,08,05,52,0.00
2010,09,08,05,53,0.00
2010,09,08,05,54,0.00
2010,09,08,05,55,0.00
2010,09,08,05,56,0.00
2010,09,08,05,57,0.00
2010,09,08,05,58,0.00
2010,09,08,05,59,0.00
2010,09,08,06,00,0.00
2010,09,08,06,01,0.00
2010,09,08,06,02,0.00
2010,09,08,06,03,0.00
2010,09,08,06,04,0.00
2010,09,08,06,05,0.00
2010,09,08,06,06,0.00
2010,09,08,06,07,0.00
2010,09,08,06,08,0.00
2010,09,08,06,09,0.00
2010,09,08,06,10,0.00
2010,09,08,06,11,0.00
2010,09,08,06,12,0.00
2010,09,08,06,13,0.00
2010,09,08,06,14,0.00
2010,09,08,06,15,0.00
2010,09,08,06,16,0.00
2010,09,08,06,17,0.00
2010,09,08,06,18,0.00
2010,09,08,06,19,0.00
2010,09,08,06,20,0.00
2010,09,08,06,21,0.00
2010,09,08,06,22,0.00
2010,09,08,06,23,0.00
2010,09,08,06,24,0.00
2010,09,08,06,25,0.00
2010,09,08,06,26,0.00
2010,09,08,06,27,0.00
2010,09,08,06,28,0.00
2010,09,08,06,29,0.00
2010,09,08,06,30,0.00
2010,09,08,06,31,0.00
2010,09,08,06,32,0.00
2010,09,08,06,33,0.00
2010,09,08,06,34,0.00
2010,09,08,06,35,0.00
2010,09,08,06,36,0.00
2010,09,08,06,37,0.00
2010,09,08,06,38,0.00
2010,09,08,06,39,0.00
2010,09,08,06,40,0.00
2010,09,08,06,41,0.00
2010,09,08,06,42,0.00
2010,09,08,06,43,0.00
2010,09,08,06,44,0.00
2010,09,08,06,45,0.00
2010,09,08,06,46,0.00
2010,09,08,06,47,0.00
2010,09,08,06,48,0.00
2010,09,08,06,49,0.00
2010,09,08,06,50,0.00
2010,09,08,06,51,0.00
2010,09,08,06,52,0.00
2010,09,08,06,53,0.00
2010,09,08,06,54,4.00
2010,09,08,06,55,5.00
2010,09,08,06,56,5.00
2010,09,08,06,57,5.00
2010,09,08,06,58,5.00
2010,09,08,06,59,5.00
2010,09,08,07,00,6.50
2010,09,08,07,01,7.00
2010,09,08,07,02,7.00
2010,09,08,07,03,7.00
2010,09,08,07,04,8.60
2010,09,08,07,05,9.00
2010,09,08,07,06,9.00
2010,09,08,07,07,10.60
2010,09,08,07,08,11.00
2010,09,08,07,09,13.40
2010,09,08,07,10,18.00
2010,09,08,07,11,20.60
2010,09,08,07,12,18.60
2010,09,08,07,13,18.00
2010,09,08,07,14,18.80
2010,09,08,07,15,20.60
2010,09,08,07,16,22.60
2010,09,08,07,17,21.50
2010,09,08,07,18,22.60
2010,09,08,07,19,23.00
2010,09,08,07,20,23.00
2010,09,08,07,21,24.60
2010,09,08,07,22,27.40
2010,09,08,07,23,26.50
2010,09,08,07,24,32.90
2010,09,08,07,25,29.40
2010,09,08,07,26,29.60
2010,09,08,07,27,31.50
2010,09,08,07,28,34.40
2010,09,08,07,29,38.20
2010,09,08,07,30,39.80
2010,09,08,07,31,40.00
2010,09,08,07,32,41.60
2010,09,08,07,33,43.60
2010,09,08,07,34,46.40
2010,09,08,07,35,48.60
2010,09,08,07,36,52.20
2010,09,08,07,37,55.40
2010,09,08,07,38,59.20
2010,09,08,07,39,62.40
2010,09,08,07,40,66.20
2010,09,08,07,41,69.40
2010,09,08,07,42,70.00
2010,09,08,07,43,74.70
2010,09,08,07,44,78.30
2010,09,08,07,45,80.60
2010,09,08,07,46,82.60
2010,09,08,07,47,83.80
2010,09,08,07,48,87.20
2010,09,08,07,49,90.30
2010,09,08,07,50,92.60
2010,09,08,07,51,94.50
2010,09,08,07,52,96.50
2010,09,08,07,53,97.00
2010,09,08,07,54,97.80
2010,09,08,07,55,98.00
2010,09,08,07,56,98.00
2010,09,08,07,57,99.60
2010,09,08,07,58,101.60
2010,09,08,07,59,103.60
2010,09,08,08,00,104.00
2010,09,08,08,01,104.80
2010,09,08,08,02,105.00
2010,09,08,08,03,106.60
2010,09,08,08,04,107.00
2010,09,08,08,05,105.40
2010,09,08,08,06,104.20
2010,09,08,08,07,102.50
2010,09,08,08,08,99.00
2010,09,08,08,09,95.60
2010,09,08,08,10,91.80
2010,09,08,08,11,91.00
2010,09,08,08,12,88.60
2010,09,08,08,13,84.80
2010,09,08,08,14,84.00
2010,09,08,08,15,85.60
2010,09,08,08,16,80.50
2010,09,08,08,17,79.00
2010,09,08,08,18,86.20
2010,09,08,08,19,103.00
2010,09,08,08,20,138.20
2010,09,08,08,21,146.00
2010,09,08,08,22,230.50
2010,09,08,08,23,209.80
2010,09,08,08,24,175.30
2010,09,08,08,25,155.30
2010,09,08,08,26,151.00
2010,09,08,08,27,151.00
2010,09,08,08,28,151.00
2010,09,08,08,29,148.60
2010,09,08,08,30,226.40
2010,09,08,08,31,260.40
2010,09,08,08,32,288.00
2010,09,08,08,33,294.00
2010,09,08,08,34,258.80
2010,09,08,08,35,305.30
2010,09,08,08,36,313.10
2010,09,08,08,37,309.40
2010,09,08,08,38,305.10
2010,09,08,08,39,301.60
2010,09,08,08,40,301.80
2010,09,08,08,41,290.80
2010,09,08,08,42,287.00
2010,09,08,08,43,275.00
2010,09,08,08,44,264.10
2010,09,08,08,45,291.70
2010,09,08,08,46,301.00
2010,09,08,08,47,301.80
2010,09,08,08,48,302.00
2010,09,08,08,49,307.20
2010,09,08,08,50,308.20
2010,09,08,08,51,308.00
2010,09,08,08,52,310.20
2010,09,08,08,53,308.70
2010,09,08,08,54,306.40
2010,09,08,08,55,318.60
2010,09,08,08,56,279.60
2010,09,08,08,57,304.20
2010,09,08,08,58,325.80
2010,09,08,08,59,337.00
2010,09,08,09,00,343.70
2010,09,08,09,01,347.40
2010,09,08,09,02,351.00
2010,09,08,09,03,347.40
2010,09,08,09,04,343.60
2010,09,08,09,05,343.00
2010,09,08,09,06,352.60
2010,09,08,09,07,351.00
2010,09,08,09,08,351.60
2010,09,08,09,09,355.90
2010,09,08,09,10,358.50
2010,09,08,09,11,359.80
2010,09,08,09,12,361.60
2010,09,08,09,13,365.20
2010,09,08,09,14,368.40
2010,09,08,09,15,372.20
2010,09,08,09,16,375.40
2010,09,08,09,17,377.50
2010,09,08,09,18,380.40
2010,09,08,09,19,382.60
2010,09,08,09,20,384.60
2010,09,08,09,21,386.60
2010,09,08,09,22,390.80
2010,09,08,09,23,393.50
2010,09,08,09,24,396.40
2010,09,08,09,25,398.60
2010,09,08,09,26,400.60
2010,09,08,09,27,403.40
2010,09,08,09,28,405.60
2010,09,08,09,29,409.00
2010,09,08,09,30,412.40
2010,09,08,09,31,414.60
2010,09,08,09,32,416.60
2010,09,08,09,33,419.30
2010,09,08,09,34,423.20
2010,09,08,09,35,424.00
2010,09,08,09,36,428.00
2010,09,08,09,37,430.60
2010,09,08,09,38,433.40
2010,09,08,09,39,435.50
2010,09,08,09,40,436.00
2010,09,08,09,41,443.10
2010,09,08,09,42,448.80
2010,09,08,09,43,453.00
2010,09,08,09,44,459.20
2010,09,08,09,45,459.40
2010,09,08,09,46,466.20
2010,09,08,09,47,485.60
2010,09,08,09,48,486.10
2010,09,08,09,49,490.20
2010,09,08,09,50,495.80
2010,09,08,09,51,502.60
2010,09,08,09,52,508.80
2010,09,08,09,53,512.40
2010,09,08,09,54,512.20
2010,09,08,09,55,517.50
2010,09,08,09,56,525.00
2010,09,08,09,57,535.80
2010,09,08,09,58,549.10
2010,09,08,09,59,564.00
2010,09,08,10,00,581.60
2010,09,08,10,01,597.80
2010,09,08,10,02,597.00
2010,09,08,10,03,596.00
2010,09,08,10,04,527.20
2010,09,08,10,05,546.00
2010,09,08,10,06,627.00
2010,09,08,10,07,645.00
2010,09,08,10,08,645.00
2010,09,08,10,09,659.40
2010,09,08,10,10,663.00
2010,09,08,10,11,663.00
2010,09,08,10,12,650.40
2010,09,08,10,13,597.50
2010,09,08,10,14,582.00
2010,09,08,10,15,454.00
2010,09,08,10,16,405.20
2010,09,08,10,17,340.20
2010,09,08,10,18,325.00
2010,09,08,10,19,325.00
2010,09,08,10,20,294.60
2010,09,08,10,21,278.20
2010,09,08,10,22,263.20
2010,09,08,10,23,258.40
2010,09,08,10,24,273.20
2010,09,08,10,25,245.20
2010,09,08,10,26,248.20
2010,09,08,10,27,258.20
2010,09,08,10,28,258.40
2010,09,08,10,29,298.00
2010,09,08,10,30,273.60
2010,09,08,10,31,265.00
2010,09,08,10,32,357.00
2010,09,08,10,33,380.00
2010,09,08,10,34,380.00
2010,09,08,10,35,380.00
2010,09,08,10,36,380.00
2010,09,08,10,37,323.20
2010,09,08,10,38,309.00
2010,09,08,10,39,309.00
2010,09,08,10,40,309.00
2010,09,08,10,41,633.00
2010,09,08,10,42,714.00
2010,09,08,10,43,714.00
2010,09,08,10,44,714.00
2010,09,08,10,45,714.00
2010,09,08,10,46,714.00
2010,09,08,10,47,714.00
2010,09,08,10,48,714.00
2010,09,08,10,49,714.00
2010,09,08,10,50,714.00
2010,09,08,10,51,714.00
2010,09,08,10,52,714.00
2010,09,08,10,53,714.00
2010,09,08,10,54,714.00
2010,09,08,10,55,654.80
2010,09,08,10,56,640.00
2010,09,08,10,57,444.80
2010,09,08,10,58,416.50
2010,09,08,10,59,470.00
2010,09,08,11,00,440.80
2010,09,08,11,01,490.60
2010,09,08,11,02,478.00
2010,09,08,11,03,433.40
2010,09,08,11,04,424.00
2010,09,08,11,05,424.00
2010,09,08,11,06,424.00
2010,09,08,11,07,424.00
2010,09,08,11,08,402.40
2010,09,08,11,09,453.80
2010,09,08,11,10,488.80
2010,09,08,11,11,494.00
2010,09,08,11,12,464.40
2010,09,08,11,13,389.80
2010,09,08,11,14,373.00
2010,09,08,11,15,373.00
2010,09,08,11,16,403.00
2010,09,08,11,17,423.20
2010,09,08,11,18,373.40
2010,09,08,11,19,293.70
2010,09,08,11,20,281.30
2010,09,08,11,21,283.00
2010,09,08,11,22,283.00
2010,09,08,11,23,583.80
2010,09,08,11,24,659.00
2010,09,08,11,25,762.20
2010,09,08,11,26,788.00
2010,09,08,11,27,735.20
2010,09,08,11,28,745.20
2010,09,08,11,29,732.60
2010,09,08,11,30,716.80
2010,09,08,11,31,706.80
2010,09,08,11,32,696.20
2010,09,08,11,33,690.00
2010,09,08,11,34,685.00
2010,09,08,11,35,682.40
2010,09,08,11,36,680.40
2010,09,08,11,37,680.00
2010,09,08,11,38,680.00
2010,09,08,11,39,681.60
2010,09,08,11,40,682.00
2010,09,08,11,41,682.00
2010,09,08,11,42,682.00
2010,09,08,11,43,682.00
2010,09,08,11,44,685.20
2010,09,08,11,45,686.00
2010,09,08,11,46,686.00
2010,09,08,11,47,686.80
2010,09,08,11,48,687.00
2010,09,08,11,49,688.60
2010,09,08,11,50,689.00
2010,09,08,11,51,690.60
2010,09,08,11,52,692.60
2010,09,08,11,53,693.80
2010,09,08,11,54,694.00
2010,09,08,11,55,695.60
2010,09,08,11,56,697.60
2010,09,08,11,57,698.00
2010,09,08,11,58,698.00
2010,09,08,11,59,699.60
2010,09,08,12,00,700.00
2010,09,08,12,01,702.40
2010,09,08,12,02,703.00
2010,09,08,12,03,704.60
2010,09,08,12,04,705.00
2010,09,08,12,05,705.00
2010,09,08,12,06,706.60
2010,09,08,12,07,707.00
2010,09,08,12,08,707.80
2010,09,08,12,09,711.20
2010,09,08,12,10,710.40
2010,09,08,12,11,711.60
2010,09,08,12,12,713.60
2010,09,08,12,13,714.80
2010,09,08,12,14,716.60
2010,09,08,12,15,717.00
2010,09,08,12,16,718.60
2010,09,08,12,17,719.00
2010,09,08,12,18,719.00
2010,09,08,12,19,721.40
2010,09,08,12,20,722.00
2010,09,08,12,21,723.60
2010,09,08,12,22,725.60
2010,09,08,12,23,728.40
2010,09,08,12,24,729.00
2010,09,08,12,25,730.60
2010,09,08,12,26,732.50
2010,09,08,12,27,734.60
2010,09,08,12,28,736.60
2010,09,08,12,29,737.00
2010,09,08,12,30,737.80
2010,09,08,12,31,739.60
2010,09,08,12,32,743.20
2010,09,08,12,33,753.50
2010,09,08,12,34,775.20
2010,09,08,12,35,779.20
2010,09,08,12,36,782.80
2010,09,08,12,37,788.00
2010,09,08,12,38,800.10
2010,09,08,12,39,803.00
2010,09,08,12,40,803.00
2010,09,08,12,41,868.50
2010,09,08,12,42,901.20
2010,09,08,12,43,905.00
2010,09,08,12,44,652.40
2010,09,08,12,45,585.00
2010,09,08,12,46,585.00
2010,09,08,12,47,585.00
2010,09,08,12,48,585.00
2010,09,08,12,49,769.70
2010,09,08,12,50,791.00
2010,09,08,12,51,774.50
2010,09,08,12,52,764.90
2010,09,08,12,53,759.80
2010,09,08,12,54,758.20
2010,09,08,12,55,758.00
2010,09,08,12,56,758.00
2010,09,08,12,57,756.40
2010,09,08,12,58,756.00
2010,09,08,12,59,754.40
2010,09,08,13,00,754.00
2010,09,08,13,01,752.40
2010,09,08,13,02,752.00
2010,09,08,13,03,753.60
2010,09,08,13,04,751.60
2010,09,08,13,05,751.80
2010,09,08,13,06,752.00
2010,09,08,13,07,752.00
2010,09,08,13,08,753.60
2010,09,08,13,09,754.00
2010,09,08,13,10,754.00
2010,09,08,13,11,755.60
2010,09,08,13,12,754.40
2010,09,08,13,13,755.60
2010,09,08,13,14,752.80
2010,09,08,13,15,755.20
2010,09,08,13,16,754.40
2010,09,08,13,17,754.00
2010,09,08,13,18,757.20
2010,09,08,13,19,758.80
2010,09,08,13,20,762.20
2010,09,08,13,21,763.00
2010,09,08,13,22,759.80
2010,09,08,13,23,760.60
2010,09,08,13,24,762.60
2010,09,08,13,25,765.40
2010,09,08,13,26,770.80
2010,09,08,13,27,774.40
2010,09,08,13,28,775.00
2010,09,08,13,29,748.90
2010,09,08,13,30,764.10
2010,09,08,13,31,766.80
2010,09,08,13,32,767.60
2010,09,08,13,33,768.00
2010,09,08,13,34,772.00
2010,09,08,13,35,777.80
2010,09,08,13,36,781.40
2010,09,08,13,37,783.60
2010,09,08,13,38,787.20
2010,09,08,13,39,793.50
2010,09,08,13,40,801.30
2010,09,08,13,41,810.10
2010,09,08,13,42,820.80
2010,09,08,13,43,830.90
2010,09,08,13,44,841.70
2010,09,08,13,45,853.60
2010,09,08,13,46,856.00
2010,09,08,13,47,907.30
2010,09,08,13,48,953.80
2010,09,08,13,49,977.20
2010,09,08,13,50,981.00
2010,09,08,13,51,812.80
2010,09,08,13,52,768.00
2010,09,08,13,53,768.00
2010,09,08,13,54,768.00
2010,09,08,13,55,523.20
2010,09,08,13,56,462.00
2010,09,08,13,57,462.00
2010,09,08,13,58,462.00
2010,09,08,13,59,462.00
2010,09,08,14,00,581.20
2010,09,08,14,01,613.00
2010,09,08,14,02,613.00
2010,09,08,14,03,613.00
2010,09,08,14,04,939.40
2010,09,08,14,05,1021.00
2010,09,08,14,06,1135.40
2010,09,08,14,07,1164.80
2010,09,08,14,08,1141.80
2010,09,08,14,09,1136.00
2010,09,08,14,10,1136.00
2010,09,08,14,11,1136.00
2010,09,08,14,12,568.40
2010,09,08,14,13,464.20
2010,09,08,14,14,476.00
2010,09,08,14,15,476.00
2010,09,08,14,16,434.40
2010,09,08,14,17,457.60
2010,09,08,14,18,457.30
2010,09,08,14,19,388.70
2010,09,08,14,20,350.20
2010,09,08,14,21,329.00
2010,09,08,14,22,336.10
2010,09,08,14,23,336.60
2010,09,08,14,24,358.10
2010,09,08,14,25,412.80
2010,09,08,14,26,418.60
2010,09,08,14,27,417.00
2010,09,08,14,28,417.00
2010,09,08,14,29,417.00
2010,09,08,14,30,417.00
2010,09,08,14,31,417.00
2010,09,08,14,32,417.00
2010,09,08,14,33,417.00
2010,09,08,14,34,417.00
2010,09,08,14,35,869.40
2010,09,08,14,36,990.00
2010,09,08,14,37,990.00
2010,09,08,14,38,990.00
2010,09,08,14,39,990.00
2010,09,08,14,40,587.60
2010,09,08,14,41,487.00
2010,09,08,14,42,487.00
2010,09,08,14,43,487.00
2010,09,08,14,44,875.40
2010,09,08,14,45,979.00
2010,09,08,14,46,686.10
2010,09,08,14,47,551.20
2010,09,08,14,48,536.00
2010,09,08,14,49,536.00
2010,09,08,14,50,533.60
2010,09,08,14,51,501.80
2010,09,08,14,52,479.80
2010,09,08,14,53,472.10
2010,09,08,14,54,487.60
2010,09,08,14,55,507.80
2010,09,08,14,56,527.20
2010,09,08,14,57,531.00
2010,09,08,14,58,531.00
2010,09,08,14,59,917.40
2010,09,08,15,00,1019.60
2010,09,08,15,01,1021.00
2010,09,08,15,02,1021.00
2010,09,08,15,03,1021.00
2010,09,08,15,04,994.60
2010,09,08,15,05,979.20
2010,09,08,15,06,977.00
2010,09,08,15,07,937.80
2010,09,08,15,08,928.00
2010,09,08,15,09,928.00
2010,09,08,15,10,928.00
2010,09,08,15,11,928.00
2010,09,08,15,12,536.00
2010,09,08,15,13,399.60
2010,09,08,15,14,408.40
2010,09,08,15,15,407.40
2010,09,08,15,16,406.00
2010,09,08,15,17,512.60
2010,09,08,15,18,540.20
2010,09,08,15,19,542.40
2010,09,08,15,20,543.00
2010,09,08,15,21,543.00
2010,09,08,15,22,821.70
2010,09,08,15,23,902.30
2010,09,08,15,24,899.20
2010,09,08,15,25,894.10
2010,09,08,15,26,887.50
2010,09,08,15,27,887.60
2010,09,08,15,28,886.40
2010,09,08,15,29,884.30
2010,09,08,15,30,885.60
2010,09,08,15,31,880.40
2010,09,08,15,32,873.40
2010,09,08,15,33,864.80
2010,09,08,15,34,855.10
2010,09,08,15,35,838.80
2010,09,08,15,36,822.40
2010,09,08,15,37,819.00
2010,09,08,15,38,800.80
2010,09,08,15,39,788.00
2010,09,08,15,40,778.90
2010,09,08,15,41,765.20
2010,09,08,15,42,753.40
2010,09,08,15,43,751.00
2010,09,08,15,44,733.80
2010,09,08,15,45,717.60
2010,09,08,15,46,709.50
2010,09,08,15,47,702.40
2010,09,08,15,48,691.50
2010,09,08,15,49,683.50
2010,09,08,15,50,674.80
2010,09,08,15,51,667.50
2010,09,08,15,52,662.00
2010,09,08,15,53,661.00
2010,09,08,15,54,657.00
2010,09,08,15,55,652.80
2010,09,08,15,56,653.60
2010,09,08,15,57,656.40
2010,09,08,15,58,660.20
2010,09,08,15,59,665.00
2010,09,08,16,00,671.60
2010,09,08,16,01,673.00
2010,09,08,16,02,696.70
2010,09,08,16,03,719.60
2010,09,08,16,04,743.70
2010,09,08,16,05,693.80
2010,09,08,16,06,758.20
2010,09,08,16,07,779.80
2010,09,08,16,08,788.70
2010,09,08,16,09,760.20
2010,09,08,16,10,678.60
2010,09,08,16,11,659.00
2010,09,08,16,12,659.00
2010,09,08,16,13,377.20
2010,09,08,16,14,285.40
2010,09,08,16,15,273.90
2010,09,08,16,16,269.60
2010,09,08,16,17,269.00
2010,09,08,16,18,272.90
2010,09,08,16,19,271.60
2010,09,08,16,20,265.50
2010,09,08,16,21,264.00
2010,09,08,16,22,262.40
2010,09,08,16,23,260.40
2010,09,08,16,24,260.00
2010,09,08,16,25,260.00
2010,09,08,16,26,258.40
2010,09,08,16,27,258.00
2010,09,08,16,28,258.00
2010,09,08,16,29,261.20
2010,09,08,16,30,265.90
2010,09,08,16,31,272.60
2010,09,08,16,32,297.70
2010,09,08,16,33,296.00
2010,09,08,16,34,294.00
2010,09,08,16,35,276.40
2010,09,08,16,36,273.60
2010,09,08,16,37,289.80
2010,09,08,16,38,368.40
2010,09,08,16,39,387.00
2010,09,08,16,40,387.00
2010,09,08,16,41,376.60
2010,09,08,16,42,419.60
2010,09,08,16,43,431.00
2010,09,08,16,44,431.00
2010,09,08,16,45,431.00
2010,09,08,16,46,361.50
2010,09,08,16,47,380.60
2010,09,08,16,48,436.40
2010,09,08,16,49,448.00
2010,09,08,16,50,448.00
2010,09,08,16,51,326.40
2010,09,08,16,52,289.30
2010,09,08,16,53,296.70
2010,09,08,16,54,297.40
2010,09,08,16,55,301.00
2010,09,08,16,56,302.00
2010,09,08,16,57,294.10
2010,09,08,16,58,288.00
2010,09,08,16,59,282.20
2010,09,08,17,00,281.00
2010,09,08,17,01,278.60
2010,09,08,17,02,270.80
2010,09,08,17,03,270.60
2010,09,08,17,04,267.80
2010,09,08,17,05,292.60
2010,09,08,17,06,322.70
2010,09,08,17,07,296.60
2010,09,08,17,08,285.60
2010,09,08,17,09,286.60
2010,09,08,17,10,304.60
2010,09,08,17,11,323.20
2010,09,08,17,12,358.20
2010,09,08,17,13,412.60